Regional Weather Roundup
Issued by NWS

Home | Current Version | Previous Version | Text Only | Print | Product List | Glossary Off
Versions: 1 2 3 4 5 6 7 8 9 10 11 12 13 14 15 16 17 18 19 20 21 22 23 24 25 26 27 28 29 30 31 32 33 34 35 36 37 38 39 40 41 42 43 44 45 46 47 48 49 50

000
ASUS43 KLMK 021502
RWRKY
KENTUCKY REGIONAL WEATHER ROUNDUP
NATIONAL WEATHER SERVICE LOUISVILLE KY
1100 AM EDT SUN AUG 02 2015

NOTE "FAIR" INDICATES FEW OR NO CLOUDS BELOW 12,000 FEET
WITH NO SIGNIFICANT WEATHER AND/OR OBSTRUCTIONS TO VISIBILITY.

KYZ001>023-026-027-061>063-070>075-021600-
WESTERN AND SOUTH CENTRAL KENTUCKY

CITY           SKY/WX    TMP DP  RH WIND       PRES   REMARKS
PADUCAH        SUNNY     81  67  62 S3        29.99S
HENDERSON      SUNNY     81  64  57 S6        29.99S
OWENSBORO      SUNNY     80  66  62 S8        30.01R
HOPKINSVILLE   SUNNY     80  62  52 SE6       30.00S
BOWLING GREEN  SUNNY     80  63  55 SE3       30.02S
GLASGOW        NOT AVBL
$$

KYZ024-025-028>034-038-045-046-053-021600-
NORTH CENTRAL KENTUCKY

CITY           SKY/WX    TMP DP  RH WIND       PRES   REMARKS
LOUISVILLE/SDF MOSUNNY   81  60  48 CALM      30.00S
LOUISVILLE/LOU SUNNY     81  60  48 VRB5      30.01S
FORT KNOX      NOT AVBL
$$

KYZ035>037-039>044-047>052-055>060-089>105-021600-
NORTHEAST KENTUCKY

CITY           SKY/WX    TMP DP  RH WIND       PRES   REMARKS
LEXINGTON      SUNNY     79  60  52 SE6       30.03S
COVINGTON      SUNNY     80  60  50 W6        30.00F
FRANKFORT      SUNNY     79  59  50 SE5       30.01S
$$

KYZ054-064>069-076>088-106>120-021600-
SOUTHEAST KENTUCKY

CITY           SKY/WX    TMP DP  RH WIND       PRES   REMARKS
JACKSON        MOSUNNY   74  64  71 CALM      30.06S
LONDON         MOSUNNY   77  60  55 VRB5      30.05S
SOMERSET       NOT AVBL
MIDDLESBORO    MOSUNNY   73  65  76 CALM      30.06S
MONTICELLO     SUNNY     80  62  54 E8        30.05F
$$




USA.gov is the U.S. government's official web portal to all federal, state and local government web resources and services.